Visibility
15.0 15.0 15.0 15.0 15.0 15.0 6.3 15.0 15.0 15.0 15.0 15.0 15.0 15.0 15.0 15.0 15.0 15.0 15.0 15.0 15.0 15.0 15.0 15.0 15.0 15.0 15.0 15.0 15.0 15.0 15.0 15.0 15.0 14.3 7.0 15.0 15.0 15.0 15.0 15.0 15.0 15.0 15.0 15.0
15.0 15.0 15.0 15.0 15.0 15.0 15.0 15.0 15.0 15.0 15.0 10.4 15.0 15.0 15.0 15.0 15.0 15.0 15.0 15.0 15.0 15.0 15.0 15.0 15.0 15.0 15.0 15.0 15.0 15.0 15.0 3.1 1.2 15.0 15.0 15.0 15.0 15.0 15.0 15.0 15.0 15.0 15.0 15.0
15.0 15.0 15.0 15.0 15.0 15.0 15.0 15.0 15.0 15.0 15.0 15.0 15.0 15.0 15.0 15.0 15.0 15.0 15.0 15.0 15.0 15.0 15.0 15.0 15.0 15.0 15.0 15.0 15.0 15.0 15.0 2.0 8.4 15.0 12.6 15.0 15.0 15.0 15.0 15.0 15.0 15.0 15.0 15.0
15.0 15.0 15.0 15.0 15.0 15.0 15.0 15.0 15.0 15.0 15.0 15.0 15.0 15.0 15.0 15.0 15.0 15.0 15.0 15.0 15.0 15.0 15.0 15.0 15.0 15.0 15.0 15.0 15.0 15.0 15.0 15.0 15.0 15.0 14.1 15.0 15.0 15.0 15.0 15.0 7.4 15.0 15.0 15.0
15.0 15.0 15.0 15.0 15.0 15.0 15.0 15.0 15.0 15.0 15.0 15.0 15.0 14.7 15.0 15.0 15.0 15.0 15.0 15.0 15.0 15.0 15.0 15.0 15.0 15.0 15.0 15.0 7.5 15.0 15.0 15.0 15.0 15.0 15.0 9.9 3.3 15.0 15.0 9.7 15.0 15.0 15.0 15.0
15.0 15.0 15.0 15.0 15.0 15.0 15.0 15.0 15.0 15.0 15.0 15.0 15.0 15.0 15.0 15.0 15.0 15.0 15.0 15.0 15.0 15.0 15.0 15.0 15.0 15.0 15.0 15.0 8.9 15.0 15.0 15.0 15.0 15.0 12.4 14.4 1.3 15.0 14.4 13.4 15.0 15.0 15.0 15.0
15.0 15.0 15.0 15.0 15.0 15.0 15.0 15.0 0.2 2.2 6.6 15.0 15.0 15.0 15.0 15.0 15.0 15.0 15.0 15.0 15.0 15.0 15.0 15.0 15.0 15.0 15.0 15.0 15.0 15.0 15.0 15.0 12.1 15.0 11.9 15.0 1.7 7.1 15.0 15.0 15.0 9.4 12.6 15.0
11.8 15.0 15.0 15.0 15.0 12.6 14.8 15.0 0.1 2.7 15.0 15.0 14.8 14.9 15.0 15.0 15.0 15.0 15.0 15.0 15.0 15.0 15.0 15.0 15.0 15.0 15.0 15.0 15.0 15.0 15.0 15.0 15.0 15.0 14.2 11.7 14.5 3.1 2.9 15.0 15.0 15.0 15.0 15.0
0.2 0.3 15.0 15.0 15.0 15.0 15.0 2.4 7.1 0.0 0.1 0.1 15.0 15.0 15.0 15.0 11.0 15.0 15.0 15.0 15.0 15.0 15.0 15.0 15.0 15.0 15.0 15.0 15.0 15.0 15.0 15.0 15.0 15.0 15.0 15.0 13.3 2.7 15.0 15.0 15.0 15.0 15.0 15.0
9.0 0.1 15.0 15.0 15.0 15.0 15.0 15.0 0.3 5.5 0.1 0.8 15.0 15.0 15.0 15.0 15.0 15.0 15.0 15.0 15.0 15.0 15.0 15.0 15.0 15.0 15.0 12.4 15.0 15.0 11.6 15.0 15.0 4.1 5.0 3.2 8.4 15.0 15.0 15.0 15.0 15.0 15.0 15.0
15.0 0.8 12.0 15.0 15.0 15.0 15.0 15.0 14.8 8.5 14.3 1.6 10.1 15.0 11.5 10.6 15.0 14.3 15.0 15.0 15.0 15.0 15.0 15.0 15.0 15.0 15.0 15.0 15.0 5.9 10.7 11.5 12.0 3.8 13.7 15.0 15.0 15.0 15.0 15.0 15.0 15.0 15.0 15.0
15.0 0.3 0.9 15.0 15.0 15.0 15.0 15.0 14.6 0.1 0.1 0.7 0.5 1.2 15.0 4.8 10.4 15.0 3.9 15.0 15.0 15.0 15.0 15.0 15.0 15.0 15.0 15.0 15.0 4.1 14.4 4.7 3.4 14.3 2.6 10.3 15.0 15.0 7.6 15.0 15.0 15.0 15.0 15.0
0.3 0.0 0.0 12.2 15.0 15.0 15.0 15.0 15.0 14.1 14.5 1.4 0.4 11.1 15.0 15.0 15.0 15.0 13.5 15.0 15.0 15.0 15.0 15.0 15.0 15.0 15.0 13.5 14.2 5.5 10.3 3.5 10.9 13.1 2.3 5.1 2.7 15.0 15.0 15.0 15.0 15.0 15.0 15.0
5.1 0.0 0.1 0.7 10.1 15.0 15.0 15.0 15.0 15.0 0.0 0.8 0.2 14.2 15.0 15.0 15.0 15.0 15.0 15.0 14.8 5.4 15.0 15.0 15.0 15.0 9.3 7.9 8.5 15.0 11.6 9.4 13.9 8.8 3.5 15.0 9.3 15.0 15.0 15.0 15.0 15.0 15.0 15.0
9.4 0.0 0.2 15.0 15.0 15.0 15.0 15.0 15.0 15.0 15.0 0.1 13.3 15.0 15.0 15.0 15.0 15.0 15.0 6.8 6.8 12.8 14.6 15.0 15.0 15.0 6.7 6.0 2.2 1.9 1.9 6.0 4.6 2.5 4.3 4.3 11.2 15.0 15.0 15.0 15.0 15.0 15.0 15.0
0.4 0.0 0.0 15.0 15.0 15.0 14.8 6.2 15.0 15.0 15.0 15.0 15.0 15.0 15.0 15.0 15.0 15.0 15.0 15.0 15.0 15.0 15.0 11.0 15.0 15.0 0.7 2.4 1.7 2.5 2.4 1.5 1.0 6.7 5.3 15.0 15.0 15.0 15.0 15.0 15.0 15.0 15.0 15.0
0.0 0.0 0.0 11.1 15.0 15.0 0.0 0.0 0.2 15.0 8.0 10.3 15.0 15.0 15.0 15.0 15.0 15.0 15.0 15.0 15.0 15.0 14.2 2.9 11.0 0.7 6.6 7.9 4.4 1.3 2.6 1.1 0.8 1.9 8.8 11.8 15.0 15.0 15.0 15.0 15.0 15.0 15.0 15.0
0.0 0.0 0.0 0.4 12.5 0.3 1.7 15.0 15.0 15.0 15.0 15.0 15.0 15.0 15.0 15.0 15.0 15.0 15.0 1.0 15.0 5.6 5.7 4.9 7.3 9.2 8.3 3.8 7.6 0.9 3.2 2.1 0.8 2.6 15.0 15.0 15.0 15.0 15.0 15.0 15.0 15.0 15.0 15.0
14.3 0.0 0.0 0.0 0.3 7.6 14.0 15.0 0.2 1.7 0.1 13.0 11.8 15.0 15.0 15.0 15.0 15.0 15.0 15.0 0.2 0.8 5.5 6.6 7.9 13.0 13.5 14.4 15.0 2.0 2.3 2.3 2.5 5.3 15.0 15.0 15.0 15.0 15.0 15.0 15.0 15.0 15.0 15.0
15.0 15.0 0.0 0.3 0.0 0.1 0.0 13.7 15.0 15.0 0.0 15.0 8.9 15.0 15.0 15.0 15.0 15.0 0.4 15.0 9.2 1.6 0.8 5.8 6.2 7.0 6.2 10.2 2.9 3.1 5.0 4.3 9.4 15.0 15.0 15.0 15.0 15.0 15.0 15.0 15.0 15.0 15.0 15.0
15.0 15.0 0.1 0.3 0.1 0.0 0.0 0.8 15.0 0.0 0.1 2.5 11.5 15.0 15.0 4.4 8.7 2.6 0.7 1.0 5.2 1.9 2.2 9.0 3.6 4.6 14.2 5.3 2.6 4.5 9.8 15.0 15.0 15.0 15.0 15.0 15.0 15.0 15.0 15.0 15.0 15.0 15.0 15.0
0.0 0.6 0.6 15.0 3.3 2.5 15.0 5.0 0.0 0.0 0.1 2.2 7.0 5.7 12.1 15.0 0.4 0.1 0.1 0.2 0.2 0.7 2.3 2.9 6.2 3.5 13.9 11.0 4.5 5.0 13.6 3.6 15.0 15.0 15.0 15.0 15.0 15.0 15.0 15.0 15.0 15.0 15.0 15.0
0.0 0.0 0.0 1.2 14.2 15.0 15.0 0.1 0.6 7.0 0.2 0.9 0.2 5.4 5.4 0.4 0.3 0.2 0.1 0.3 0.6 2.3 3.7 4.1 11.2 14.3 14.2 6.2 5.9 13.9 12.1 15.0 15.0 15.0 15.0 15.0 15.0 15.0 15.0 15.0 15.0 15.0 15.0 15.0
0.0 0.1 0.0 0.0 2.5 14.4 15.0 1.4 12.7 9.3 0.3 10.8 8.6 15.0 15.0 1.5 2.4 0.1 0.7 2.0 3.5 5.7 15.0 15.0 14.9 14.4 7.4 6.2 12.6 4.8 15.0 15.0 15.0 15.0 15.0 15.0 15.0 15.0 15.0 15.0 15.0 15.0 15.0 15.0
0.0 0.0 0.0 0.0 3.8 0.0 14.1 9.6 12.6 13.2 6.9 13.1 15.0 7.3 15.0 11.2 0.2 7.5 0.8 2.6 10.5 15.0 15.0 15.0 4.7 5.7 10.5 15.0 15.0 15.0 15.0 15.0 15.0 15.0 15.0 15.0 15.0 15.0 15.0 15.0 15.0 15.0 15.0 15.0
0.0 0.0 0.0 0.1 0.0 0.0 0.0 1.6 13.4 4.4 4.6 8.7 14.3 0.5 2.0 14.6 0.3 4.5 1.6 6.8 15.0 15.0 15.0 15.0 6.0 15.0 15.0 8.7 5.3 15.0 15.0 15.0 15.0 15.0 15.0 15.0 15.0 15.0 15.0 15.0 15.0 15.0 15.0 15.0